sat.trackr.live / text

‹ back to catalog

STAR ONE C3

NORAD 38991 · 2012-062A

PAYLOAD ACTIVE UNKNOWN

§ Identity

Operator
Country
BRAZ
Launch date
2012-11-10
Launch site
FRGUI
Launch vehicle
Mass (kg)
RCS (m²)
113.21

Purposes: comms

External: N2YO · Heavens-Above · Gunter

§ Orbital elements

Epoch: 2026-09-15T21:56:58.098912Z

Period
1,436.08 min
Inclination
0.0231°
Eccentricity
0.0002038
Mean motion
1.00273287 rev/d
Perigee alt
35,777.6 km
Apogee alt
35,794.8 km
Semi-major
42,164.3 km
B*
0.0000e+0
RAAN
94.2421°
Arg perigee
69.0197°
Mean anomaly
85.8532°
Rev number
5,067

§ Raw data

STAR ONE C31 38991U 12062A   26258.91456133 -.00000255  00000+0  00000+0 0  99972 38991   0.0231  94.2421 0002038  69.0197  85.8532  1.00273287 50674

JSON: /api/v1/satellites/38991 · /tle

For live sub-satellite position, see the globe view (requires WebGL).

§ Visibility from observer

Set your observer location to see the next 7 days of passes ≥ 10°. The values pass through the URL so the page stays shareable.

No JS? Fill the form by hand. The geolocation button needs JavaScript.